Regional Weather Roundup
Issued by NWS Charleston, WV

Home | Current Version | Previous Version | Graphics & Text | Print | Product List | Glossary On
Versions: 1 2 3 4 5 6 7 8 9 10 11 12 13 14 15 16 17 18 19 20 21 22 23 24 25 26 27 28
000
ASUS41 KRLX 152210
RWRRLX
West Virginia Regional Weather Roundup
National Weather Service Charleston WV
600 PM EDT TUE APR 15 2014

Note: "fair" indicates few or no clouds below 12,000 feet with no
significant weather and/or obstructions to visibility.

WVZ003-152300-
Northern Panhandle of West Virginia

CITY           SKY/WX    TMP DP  RH WIND       PRES   REMARKS
WHEELING       CLOUDY    30  22  72 W12G22    30.02R
$$

WVZ009-152300-
Northwest West Virginia

CITY           SKY/WX    TMP DP  RH WIND       PRES   REMARKS
PARKERSBURG    CLOUDY    34  22  61 NW9       30.08R
$$

WVZ006-152300-
Western West Virginia

CITY           SKY/WX    TMP DP  RH WIND       PRES   REMARKS
HUNTINGTON     CLOUDY    37  22  54 NW13G20   30.08R
$$

WVZ015-152300-
West Central West Virginia

CITY           SKY/WX    TMP DP  RH WIND       PRES   REMARKS
CHARLESTON     FLURRIES  36  25  64 NW10G25   30.05R
$$

WVZ031-152300-
North Central West Virginia

CITY           SKY/WX    TMP DP  RH WIND       PRES   REMARKS
CLARKSBURG     CLOUDY    34  26  72 W21       29.99R
MORGANTOWN     FLURRIES  34  26  72 NW14G22   29.97R
$$

WVZ035-042-045-152300-
South Central West Virginia

CITY           SKY/WX    TMP DP  RH WIND       PRES   REMARKS
BECKLEY        LGT SNOW  30  25  81 NW16G24   29.94R
BLUEFIELD      CLOUDY    32  26  78 NW15G24   29.90F
LEWISBURG      CLOUDY    33  25  71 NW9       29.90R
$$

WVZ047-152300-
Northern Mountains of West Virginia

CITY           SKY/WX    TMP DP  RH WIND       PRES   REMARKS
ELKINS         FLURRIES  32  27  81 NW8       29.93R
$$

WVZ052-152300-
Eastern Panhandle of West Virginia

CITY           SKY/WX    TMP DP  RH WIND       PRES   REMARKS
MARTINSBURG    LGT RAIN  41  33  73 NW14G23   29.87R
PETERSBURG     CLOUDY    46  34  62 NW10G23   29.88R
$$



USA.gov is the U.S. government's official web portal to all federal, state and local government web resources and services.